Regional Weather Roundup
Issued by NWS State College, PA

Home | Current Version | Previous Version | Graphics & Text | Print | Product List | Glossary On
Versions: 1 2 3 4 5 6 7 8 9 10 11 12 13 14 15 16 17 18 19 20 21 22 23 24 25 26 27 28 29 30 31 32 33 34 35 36 37 38 39 40 41 42 43 44 45 46 47 48 49 50
000
ASUS41 KCTP 112210
RWRCTP

REGIONAL WEATHER ROUNDUP
NATIONAL WEATHER SERVICE STATE COLLEGE PA
600 PM EDT FRI JUL 11 2014

Note: "fair" indicates few or no clouds below 12,000 feet with no
significant weather and/or obstructions to visibility.

* = STATION THAT DOES NOT REPORT PRECIPITATION /E.G. RAIN...SNOW...ETC/
    THUNDER OR FOG.

PAZ002>004-007>009-013>016-020>023-029>032-112300-
WESTERN PENNSYLVANIA

CITY           SKY/WX    TMP DP  RH WIND       PRES   REMARKS
ERIE           SUNNY     76  57  51 NE5       30.19S
MEADVILLE      MOSUNNY   80  57  45 W7        30.19F
FRANKLIN*      MOSUNNY   79  57  47 SW5       30.20F
NEW CASTLE       N/A     84  59  42 CALM      30.18F
BEAVER COUNTY  MOSUNNY   84  57  39 SW6       30.18F
BUTLER*        SUNNY     81  61  50 CALM      30.19F
PITTSBURGH INT MOSUNNY   83  58  42 W6        30.17F
PITTSBURGH     PTSUNNY   82  55  39 S6        30.17S
INDIANA*       MOSUNNY   81  55  41 CALM      30.22S
LATROBE        NOT AVBL
WASHINGTON CO* SUNNY     82  59  44 W3        30.19S
$$

PAZ004>006-010>012-017>019-024>028-033>037-041-042-045-046-049>053-112300-
CENTRAL PENNSYLVANIA

CITY           SKY/WX    TMP DP  RH WIND       PRES   REMARKS
BRADFORD       SUNNY     78  54  43 SW8       30.21F
DUBOIS         MOSUNNY   80  57  45 VRB5      30.20F
CLEARFIELD     MOSUNNY   80  58  46 VRB5      30.20F
JOHNSTOWN      CLOUDY    75  59  57 NE5       30.23F
ALTOONA        MOSUNNY   79  62  56 E5        30.21F
STATE COLLEGE  MOSUNNY   79  59  50 CALM      30.20F
WILLIAMSPORT   MOSUNNY   83  57  41 VRB6      30.15F
SELINSGROVE    SUNNY     84  59  42 CALM      30.17S
FT INDIANTOWN  SUNNY     84  65  53 VRB2      30.17F
CAPITAL CITY   SUNNY     85  57  38 E3        30.16S
HARRISBURG     MOSUNNY   87  60  40 CALM      30.15
YORK           MOSUNNY   83  64  52 E6        30.17S
$$

PAZ038>040-043-044-047-048-054-055-060>062-067>071-112300-
EASTERN PENNSYLVANIA

CITY           SKY/WX    TMP DP  RH WIND       PRES   REMARKS
SCRANTON       SUNNY     81  54  39 CALM      30.19F
MOUNT POCONO   MOSUNNY   73  56  54 E6        30.24F
ALLENTOWN      MOSUNNY   83  60  45 NE9       30.17F
QUAKERTOWN*    CLOUDY    82  59  44 NE3       30.18S
READING        CLOUDY    84  60  44 N6        30.16S
LANCASTER      MOSUNNY   83  62  49 E3        30.16F
COATESVILLE    CLEAR     82  61  47 CALM      30.18F
POTTSTOWN      MOSUNNY   81  64  56 CALM      30.18S
BLUE BELL      SUNNY     86  61  42 SE3       30.15F
DOYLESTOWN     SUNNY     82  58  43 CALM      30.16F
WILLOW GROVE   NOT AVBL
NORTH PHILA    SUNNY     87  54  32 SE3       30.16F
PHILADELPHIA   MOSUNNY   89  55  31 E6        30.15F
$$



USA.gov is the U.S. government's official web portal to all federal, state and local government web resources and services.